TimeEST,TemperatureF,Dew PointF,Humidity,Sea Level PressureIn,VisibilityMPH,Wind Direction,Wind SpeedMPH,Gust SpeedMPH,PrecipitationIn,Events,Conditions,WindDirDegrees,DateUTC
12:52 AM,34.0,27.0,75,29.90,10.0,NNW,3.5,-,N/A,,Overcast,330,2012-11-09 05:52:00
1:52 AM,33.1,27.0,78,29.91,10.0,NNW,6.9,-,N/A,,Overcast,340,2012-11-09 06:52:00
2:52 AM,33.1,27.0,78,29.91,10.0,Calm,Calm,-,N/A,,Overcast,0,2012-11-09 07:52:00
3:52 AM,33.1,28.0,82,29.91,7.0,WSW,3.5,-,0.00,Snow,Light Snow,250,2012-11-09 08:52:00
4:52 AM,34.0,26.1,73,29.92,10.0,NW,4.6,-,0.00,,Overcast,320,2012-11-09 09:52:00
5:52 AM,34.0,26.1,73,29.94,10.0,Calm,Calm,-,N/A,,Overcast,0,2012-11-09 10:52:00
6:52 AM,34.0,27.0,75,29.96,10.0,North,3.5,-,N/A,,Overcast,360,2012-11-09 11:52:00
7:52 AM,34.0,27.0,75,29.97,10.0,West,4.6,-,N/A,,Overcast,270,2012-11-09 12:52:00
8:52 AM,34.0,26.1,73,30.00,10.0,NNW,5.8,-,N/A,,Overcast,340,2012-11-09 13:52:00
9:52 AM,35.1,27.0,72,30.00,10.0,Calm,Calm,-,N/A,,Overcast,0,2012-11-09 14:52:00
10:52 AM,37.9,28.0,68,30.00,10.0,West,4.6,-,N/A,,Overcast,280,2012-11-09 15:52:00
11:23 AM,37.4,26.6,65,29.95,10.0,West,6.9,-,N/A,,Scattered Clouds,270,2012-11-09 16:23:00
11:52 AM,39.9,26.1,58,29.98,10.0,WNW,10.4,-,N/A,,Partly Cloudy,290,2012-11-09 16:52:00
12:52 PM,42.1,25.0,51,29.97,10.0,West,4.6,-,N/A,,Scattered Clouds,270,2012-11-09 17:52:00
1:52 PM,43.0,24.1,47,29.98,10.0,West,9.2,-,N/A,,Clear,270,2012-11-09 18:52:00
2:52 PM,42.1,21.9,45,30.00,10.0,WNW,11.5,-,N/A,,Mostly Cloudy,290,2012-11-09 19:52:00
3:52 PM,41.0,21.9,47,30.02,10.0,West,9.2,-,N/A,,Overcast,280,2012-11-09 20:52:00
4:52 PM,39.9,23.0,51,30.04,10.0,West,10.4,-,N/A,,Overcast,260,2012-11-09 21:52:00
5:24 PM,39.2,24.8,56,30.01,10.0,WSW,5.8,-,N/A,,Overcast,240,2012-11-09 22:24:00
5:52 PM,39.9,24.1,53,30.05,10.0,WSW,8.1,-,N/A,,Overcast,240,2012-11-09 22:52:00
6:52 PM,39.0,27.0,62,30.07,10.0,SW,4.6,-,N/A,,Overcast,220,2012-11-09 23:52:00
7:52 PM,39.0,28.0,65,30.08,10.0,Calm,Calm,-,N/A,,Overcast,0,2012-11-10 00:52:00
8:52 PM,39.0,28.9,67,30.09,10.0,Calm,Calm,-,N/A,,Overcast,0,2012-11-10 01:52:00
9:52 PM,39.0,28.9,67,30.10,10.0,WSW,3.5,-,N/A,,Overcast,240,2012-11-10 02:52:00
10:52 PM,37.9,30.0,73,30.10,10.0,SW,3.5,-,N/A,,Overcast,220,2012-11-10 03:52:00
11:52 PM,37.9,30.0,73,30.10,10.0,Calm,Calm,-,N/A,,Overcast,0,2012-11-10 04:52:00